Weather History for Sofia, Bulgaria

Change the Weather History Date:

Thursday, December 13, 2012

  Actual Average Record
Temperature  
Mean Temperature 21 °F -  
Max Temperature 30 °F 38 °F 53 °F (2000)
Min Temperature 12 °F 25 °F 12 °F (1998)
Degree Days  
Heating Degree Days 44    
Moisture  
Dew Point 14 °F    
Average Humidity 75    
Maximum Humidity 100    
Minimum Humidity 39    
Precipitation  
Precipitation 0.00 in 0.05 in - ()
Sea Level Pressure  
Sea Level Pressure 30.27 in    
Wind  
Wind Speed 8 mph ()    
Max Wind Speed 16 mph    
Max Gust Speed -    
Visibility 6.6 miles    
Events      
Averages and records for this station are not official NWS values.
T = Trace of Precipitation, MM = Missing Value Source: Averaged Metar Reports

Daily Weather History Graph

Daily Weather History Graph

Search for Another Location

Airport:

Trip Planner

Search our weather history database for the weather conditions in past years. The results will help you decide how hot, cold, wet, or windy it might be!

Date:

Astronomy

Dec. 13, 2012 Rise Set
Actual Time 7:48 AM EET 4:53 PM EET
Civil Twilight 7:16 AM EET 5:25 PM EET
Nautical Twilight 6:40 AM EET 6:00 PM EET
Astronomical Twilight 6:06 AM EET 6:35 PM EET
Moon 7:37 AM EET (12/13) 5:14 PM EET (12/13)
Length of Visible Light 10h 09m
Length of Day
9h 04m
New Moon, 0% of the Moon is Illuminated
Dec 13
New Moon
Dec 20
First Quarter
Dec 28
Full
Jan 5
Last Quarter
Jan 11
New

Hourly Weather History & Observations

Time (EET) Temp. Windchill Dew Point Humidity Pressure Visibility Wind Dir Wind Speed Gust Speed Precip Events Conditions
12:00 AM 21.2 °F 8.5 °F 15.8 °F 80% 30.15 in 6.2 mi West 13.4 mph - N/A   Partly Cloudy
12:30 AM 21.2 °F 7.5 °F 15.8 °F 80% 30.15 in 6.2 mi West 15.7 mph - N/A   Partly Cloudy
1:00 AM 21.2 °F 7.5 °F 15.8 °F 80% 30.15 in 6.2 mi West 15.7 mph - N/A   Mostly Cloudy
1:30 AM 21.2 °F 8.5 °F 14.0 °F 74% 30.15 in 6.2 mi West 13.4 mph - N/A   Scattered Clouds
2:00 AM 21.2 °F 8.5 °F 14.0 °F 74% 30.15 in - West 13.4 mph - N/A   Clear
2:30 AM 19.4 °F 8.8 °F 12.2 °F 74% 30.15 in - West 8.9 mph - N/A   Clear
3:00 AM 15.8 °F 4.4 °F 10.4 °F 79% 30.15 in - West 8.9 mph - N/A   Clear
3:30 AM 19.4 °F 10.6 °F 14.0 °F 80% 30.15 in - North 6.7 mph - N/A   Clear
4:00 AM 19.4 °F 10.6 °F 14.0 °F 80% 30.15 in - NNW 6.7 mph - N/A   Clear
4:30 AM 15.8 °F 4.4 °F 12.2 °F 86% 30.15 in - North 8.9 mph - N/A   Clear
5:00 AM 21 °F - 15 °F 67% 30.29 in 10 mi WNW 4.5 mph - -   Scattered Clouds
5:00 AM 14.0 °F 0.7 °F 10.4 °F 86% 30.18 in - North 11.2 mph - N/A   Clear
5:30 AM 14.0 °F 2.2 °F 10.4 °F 86% 30.18 in 6.2 mi NNW 8.9 mph - N/A   Partly Cloudy
6:00 AM 14.0 °F 4.1 °F 10.4 °F 86% 30.18 in 6.2 mi WNW 6.7 mph - N/A   Mostly Cloudy
6:30 AM 17.6 °F 6.6 °F 12.2 °F 79% 30.18 in 6.2 mi West 8.9 mph - N/A   Mostly Cloudy
7:00 AM 21.2 °F 9.7 °F 12.2 °F 68% 30.18 in 6.2 mi West 11.2 mph - N/A   Scattered Clouds
7:30 AM 17.6 °F 8.4 °F 12.2 °F 79% 30.21 in 6.2 mi WNW 6.7 mph - N/A   Mostly Cloudy
8:00 AM 22 °F - 14 °F 61% 30.34 in 16 mi West 8.9 mph - -   Scattered Clouds
8:00 AM 19.4 °F 10.6 °F 12.2 °F 74% 30.21 in 6.2 mi NNW 6.7 mph - N/A   Scattered Clouds
8:30 AM 17.6 °F 8.4 °F 12.2 °F 79% 30.24 in 6.2 mi NW 6.7 mph - N/A   Partly Cloudy
9:00 AM 19.4 °F 12.9 °F 12.2 °F 74% 30.24 in - Variable 4.5 mph - N/A   Clear
9:30 AM 19.4 °F 10.6 °F 12.2 °F 74% 30.24 in - North 6.7 mph - N/A   Clear
10:00 AM 23.0 °F 17.1 °F 14.0 °F 68% 30.27 in - Variable 4.5 mph - N/A   Clear
10:30 AM 23.0 °F 17.1 °F 14.0 °F 68% 30.27 in - NW 4.5 mph - N/A   Clear
11:00 AM 23 °F - 12 °F 51% 30.40 in 11 mi Calm Calm - -  
11:00 AM 23.0 °F 14.9 °F 14.0 °F 68% 30.27 in - NNW 6.7 mph - N/A   Clear
11:30 AM 23.0 °F 14.9 °F 14.0 °F 68% 30.27 in - NW 6.7 mph - N/A   Clear
12:00 PM 23.0 °F 13.2 °F 14.0 °F 68% 30.27 in - NW 8.9 mph - N/A   Clear
12:30 PM 24.8 °F 14.2 °F 15.8 °F 69% 30.27 in - NW 11.2 mph - N/A   Clear
1:00 PM 24.8 °F 14.2 °F 14.0 °F 64% 30.27 in - NW 11.2 mph - N/A   Clear
1:30 PM 26.6 °F 16.4 °F 15.8 °F 64% 30.27 in - NW 11.2 mph - N/A   Clear
2:00 PM 30 °F - 15 °F 39% 30.37 in 12 mi West 4.5 mph - -  
2:00 PM 26.6 °F 16.4 °F 15.8 °F 64% 30.27 in - NW 11.2 mph - N/A   Clear
2:30 PM 30.2 °F 20.9 °F 19.4 °F 64% 30.27 in - NW 11.2 mph - N/A   Clear
3:00 PM 28.4 °F 18.7 °F 17.6 °F 64% 30.27 in - NW 11.2 mph - N/A   Clear
3:30 PM 28.4 °F 19.9 °F 17.6 °F 64% 30.27 in - NNW 8.9 mph - N/A   Clear
4:00 PM 28.4 °F 23.4 °F 17.6 °F 64% 30.27 in - Variable 4.5 mph - N/A   Clear
4:30 PM 24.8 °F - 15.8 °F 69% 30.27 in - Variable 2.2 mph - N/A   Clear
5:00 PM 23 °F - 15 °F 59% 30.41 in 16 mi Calm Calm - -  
5:00 PM 21.2 °F 15.0 °F 14.0 °F 74% 30.30 in - West 4.5 mph - N/A   Clear
5:30 PM 23.0 °F 17.1 °F 14.0 °F 68% 30.30 in - SW 4.5 mph - N/A   Clear
6:00 PM 23.0 °F 17.1 °F 14.0 °F 68% 30.30 in 4.3 mi South 4.5 mph - N/A   Unknown
6:30 PM 23.0 °F 14.9 °F 15.8 °F 74% 30.30 in 5.6 mi SSW 6.7 mph - N/A   Smoke
7:00 PM 19.4 °F 12.9 °F 15.8 °F 86% 30.30 in 3.1 mi ENE 4.5 mph - N/A   Mist
7:30 PM 15.8 °F 6.2 °F 12.2 °F 86% 30.33 in 3.1 mi East 6.7 mph - N/A   Mist
8:00 PM 21 °F - 14 °F 64% 30.44 in 12 mi Calm Calm - -  
8:00 PM 15.8 °F 8.7 °F 12.2 °F 86% 30.33 in 2.5 mi ESE 4.5 mph - N/A   Mist
8:30 PM 14.0 °F 6.6 °F 12.2 °F 93% 30.33 in 2.5 mi Variable 4.5 mph - N/A   Mist
9:00 PM 12.2 °F 4.5 °F 10.4 °F 92% 30.33 in 2.5 mi SSE 4.5 mph - N/A   Mist
9:30 PM 12.2 °F - 12.2 °F 100% 30.33 in - Variable 2.2 mph - N/A   Mist
10:00 PM 12.2 °F 4.5 °F 10.4 °F 92% 30.33 in 2.5 mi East 4.5 mph - N/A   Mist
10:30 PM 12.2 °F 1.9 °F 10.4 °F 92% 30.36 in 3.1 mi ESE 6.7 mph - N/A   Mist
11:00 PM 14 °F - 11 °F 80% 30.50 in 11 mi SSE 2.2 mph - -  
11:00 PM 12.2 °F 1.9 °F 10.4 °F 92% 30.36 in 3.1 mi SE 6.7 mph - N/A   Mist
11:30 PM 14.0 °F 6.6 °F 12.2 °F 93% 30.36 in 3.1 mi SE 4.5 mph - N/A   Mist